Total_Precipitation_Accumulation
1.10 1.27 1.22 1.10 1.13 1.13 1.24 1.41 1.49 1.31 1.20 1.19 1.21 1.22 1.41 1.51 1.63 1.53 1.37 1.40 1.25 1.07 0.97 0.93 0.96 1.04 1.10 1.14 1.23 1.32 1.41 1.47 1.58 1.77 2.05 2.35 2.65 2.92
1.22 1.34 1.34 1.25 1.28 1.26 1.27 1.39 1.59 1.57 1.40 1.25 1.29 1.25 1.28 1.17 1.31 1.24 1.26 1.34 1.20 1.12 1.08 1.04 1.00 1.01 1.02 1.07 1.09 1.07 1.06 1.06 1.07 1.12 1.21 1.35 1.55 1.85
1.23 1.25 1.26 1.35 1.42 1.40 1.48 1.51 1.57 1.70 1.58 1.32 1.37 1.47 1.44 1.28 1.21 1.18 1.16 1.15 1.13 1.17 1.12 1.10 1.05 0.99 0.93 0.89 0.93 0.96 0.92 0.91 0.89 0.87 0.87 0.90 0.90 0.95
1.27 1.39 1.32 1.36 1.46 1.51 1.65 1.63 1.68 1.91 1.90 1.68 1.63 1.68 1.57 1.46 1.36 1.27 1.11 1.04 1.05 1.17 1.11 1.05 0.98 0.91 0.87 0.83 0.80 0.79 0.78 0.77 0.77 0.77 0.77 0.76 0.76 0.75
1.44 1.50 1.52 1.63 1.61 1.65 1.71 1.71 1.77 1.99 2.16 2.02 1.91 1.97 1.91 1.67 1.54 1.34 1.20 1.20 1.04 1.08 1.12 1.06 1.00 0.94 0.88 0.88 0.88 0.83 0.75 0.71 0.67 0.69 0.74 0.77 0.80 0.79
1.55 1.56 1.57 1.66 1.72 1.81 1.83 1.92 2.05 2.23 2.40 2.32 2.23 2.27 2.26 2.08 1.85 1.54 1.43 1.36 1.23 1.10 1.17 1.14 1.10 1.03 0.94 0.87 0.83 0.82 0.80 0.78 0.75 0.72 0.72 0.75 0.78 0.80
1.51 1.54 1.51 1.57 1.65 1.76 1.76 1.92 2.15 2.36 2.54 2.60 2.58 2.69 2.60 2.42 2.11 1.77 1.68 1.59 1.46 1.27 1.18 1.08 1.04 0.97 0.93 0.90 0.86 0.84 0.82 0.81 0.81 0.82 0.81 0.77 0.75 0.74
1.64 1.66 1.61 1.55 1.52 1.56 1.63 1.74 1.89 2.09 2.35 2.57 2.66 2.73 2.76 2.60 2.38 2.12 1.79 1.54 1.42 1.30 1.29 1.20 1.08 1.02 0.91 0.84 0.93 0.90 0.85 0.82 0.81 0.82 0.83 0.84 0.83 0.81
1.62 1.62 1.49 1.39 1.42 1.35 1.45 1.48 1.49 1.59 1.72 1.97 2.20 2.26 2.44 2.53 2.41 2.09 1.79 1.54 1.35 1.32 1.34 1.24 1.13 1.06 0.95 0.93 1.03 0.92 0.85 0.83 0.80 0.78 0.80 0.82 0.84 0.85
1.41 1.44 1.45 1.37 1.36 1.41 1.39 1.31 1.20 1.21 1.29 1.33 1.46 1.71 1.95 2.21 2.27 2.16 2.07 1.79 1.50 1.30 1.25 1.19 1.06 1.00 0.96 0.95 1.04 0.97 0.90 0.86 0.83 0.80 0.78 0.77 0.78 0.81
1.46 1.45 1.46 1.35 1.38 1.29 1.25 1.23 1.16 1.13 1.14 1.18 1.25 1.45 1.71 1.89 2.06 2.05 1.98 1.87 1.63 1.35 1.20 1.15 1.05 1.02 1.01 0.94 0.93 0.96 0.89 0.88 0.86 0.83 0.79 0.77 0.77 0.79
1.47 1.49 1.51 1.39 1.42 1.35 1.32 1.34 1.26 1.17 1.15 1.13 1.16 1.22 1.30 1.55 1.79 1.79 1.75 1.76 1.64 1.42 1.17 1.14 1.08 1.07 1.09 0.90 0.76 0.75 0.76 0.83 0.86 0.83 0.80 0.77 0.76 0.67
1.41 1.39 1.44 1.43 1.29 1.18 1.10 1.11 1.15 1.13 1.14 1.12 1.10 1.13 1.20 1.30 1.48 1.58 1.62 1.58 1.50 1.32 1.11 1.12 1.12 1.08 1.03 0.91 0.79 0.72 0.68 0.68 0.71 0.75 0.80 0.82 0.79 0.65
1.28 1.26 1.28 1.23 1.07 0.95 0.84 0.82 0.84 0.81 0.88 0.97 1.01 1.00 1.04 1.11 1.24 1.47 1.62 1.60 1.46 1.31 1.23 1.20 1.15 1.10 1.04 0.92 0.81 0.73 0.70 0.66 0.60 0.58 0.62 0.82 0.87 0.86
1.10 1.28 1.27 1.14 1.04 0.97 0.90 0.81 0.72 0.67 0.75 0.84 0.82 0.83 0.85 0.93 1.08 1.38 1.63 1.79 1.68 1.41 1.26 1.21 1.17 1.12 1.06 0.89 0.72 0.65 0.65 0.64 0.58 0.56 0.58 0.67 0.74 0.80
1.10 1.25 1.32 1.30 1.22 1.13 1.02 0.85 0.70 0.68 0.70 0.75 0.79 0.81 0.89 0.96 1.06 1.14 1.37 1.59 1.66 1.49 1.26 1.16 1.11 1.13 1.05 0.89 0.77 0.65 0.58 0.59 0.58 0.60 0.64 0.65 0.69 0.74
1.20 1.33 1.46 1.47 1.44 1.33 1.18 1.02 0.89 0.84 0.80 0.79 0.87 0.89 0.92 0.94 0.96 1.00 1.15 1.31 1.34 1.26 1.19 1.17 1.19 1.19 1.19 1.10 0.90 0.69 0.60 0.54 0.53 0.62 0.72 0.72 0.67 0.69
0.98 1.19 1.47 1.54 1.55 1.53 1.41 1.22 1.06 0.98 0.93 0.91 0.93 0.93 0.93 0.96 0.99 1.04 1.11 1.22 1.23 1.15 1.12 1.10 1.19 1.29 1.26 1.17 0.96 0.76 0.65 0.60 0.57 0.65 0.72 0.72 0.66 0.65
0.68 0.90 1.20 1.43 1.52 1.55 1.47 1.29 1.11 1.05 1.06 1.02 0.98 0.97 0.96 0.97 1.04 1.09 1.12 1.19 1.24 1.19 1.11 1.13 1.19 1.26 1.21 1.01 0.85 0.73 0.72 0.69 0.71 0.72 0.72 0.72 0.67 0.61
0.55 0.72 0.98 1.25 1.35 1.41 1.40 1.34 1.23 1.18 1.16 1.11 1.08 1.05 1.03 1.04 1.03 1.06 1.11 1.14 1.18 1.24 1.17 1.13 1.14 1.13 1.10 1.03 0.94 0.83 0.76 0.80 0.86 0.83 0.76 0.78 0.77 0.77
0.70 0.76 0.91 1.14 1.30 1.40 1.42 1.40 1.34 1.30 1.27 1.26 1.21 1.18 1.15 1.18 1.14 1.08 1.12 1.21 1.24 1.28 1.19 1.00 0.97 1.12 1.26 1.38 1.24 0.95 0.82 0.81 0.91 0.96 0.91 0.94 0.92 0.90
0.90 0.91 0.97 1.12 1.27 1.40 1.43 1.39 1.41 1.39 1.40 1.37 1.32 1.27 1.22 1.23 1.24 1.21 1.23 1.27 1.23 1.20 1.20 1.15 1.20 1.31 1.34 1.31 1.16 1.04 0.95 0.90 0.96 1.01 0.97 0.93 0.91 0.84
1.05 1.02 1.05 1.15 1.24 1.35 1.36 1.33 1.34 1.40 1.39 1.35 1.32 1.30 1.26 1.22 1.23 1.25 1.24 1.28 1.27 1.26 1.32 1.38 1.38 1.34 1.27 1.25 1.20 1.15 1.10 1.03 1.02 1.00 0.92 0.87 0.75 0.67